Weather History for Kansas City International, MO

Change the Weather History Date:

Monday, January 7, 2013

  Actual Average Record
Temperature  
Mean Temperature 39 °F 29 °F  
Max Temperature 49 °F 38 °F 70 °F (1907)
Min Temperature 28 °F 20 °F -11 °F (1912)
Degree Days  
Heating Degree Days 26 36  
Month to date heating degree days 258 252  
Since 1 July heating degree days 2096 2294  
Cooling Degree Days 0 0  
Month to date cooling degree days 0 0  
Year to date cooling degree days 0 0  
Moisture  
Dew Point 22 °F    
Average Humidity 53    
Maximum Humidity 69    
Minimum Humidity 36    
Precipitation  
Precipitation 0.00 in 0.03 in 1.74 in (1937)
Month to date precipitation T 0.23  
Year to date precipitation T 0.23  
Snow  
Snow 0.00 in 0.20 in 3.30 in (1926)
Month to date snowfall T 1.0  
Since 1 July snowfall 3.7 7.2  
Snow Depth T in    
Sea Level Pressure  
Sea Level Pressure 30.14 in    
Wind  
Wind Speed 16 mph (SSW)    
Max Wind Speed 25 mph    
Max Gust Speed 31 mph    
Visibility 10 miles    
Events      
T = Trace of Precipitation, MM = Missing Value Source: NWS Daily Summary

Daily Weather History Graph

Daily Weather History Graph

Search for Another Location

Airport:

Trip Planner

Search our weather history database for the weather conditions in past years. The results will help you decide how hot, cold, wet, or windy it might be!

Date:

Astronomy

Jan. 07, 2013 Rise Set
Actual Time 7:38 AM CST 5:12 PM CST
Civil Twilight 7:09 AM CST 5:41 PM CST
Nautical Twilight 6:35 AM CST 6:15 PM CST
Astronomical Twilight 6:03 AM CST 6:47 PM CST
Moon 3:04 AM CST (1/7) 1:23 PM CST (1/7)
Length of Visible Light 10h 32m
Length of Day
9h 33m
Waning Crescent, 22% of the Moon is Illuminated
Jan 7
Waning Crescent
Jan 11
New
Jan 18
First Quarter
Jan 26
Full
Feb 3
Last Quarter

Hourly Weather History & Observations

Time (CST) Temp. Windchill Dew Point Humidity Pressure Visibility Wind Dir Wind Speed Gust Speed Precip Events Conditions
12:53 AM 30.0 °F 19.5 °F 19.0 °F 64% 30.28 in 10.0 mi South 13.8 mph - N/A   Clear
1:53 AM 30.0 °F 19.5 °F 19.0 °F 64% 30.26 in 10.0 mi South 13.8 mph - N/A   Clear
2:53 AM 32.0 °F 20.8 °F 19.0 °F 59% 30.26 in 10.0 mi SSW 17.3 mph - N/A   Clear
3:53 AM 32.0 °F 21.6 °F 19.0 °F 59% 30.24 in 10.0 mi South 15.0 mph - N/A   Clear
4:53 AM 30.9 °F 20.7 °F 19.0 °F 61% 30.23 in 10.0 mi South 13.8 mph - N/A   Clear
6:53 AM 33.1 °F 23.0 °F 19.0 °F 56% 30.22 in 10.0 mi SSW 15.0 mph - N/A   Clear
7:53 AM 33.1 °F 22.2 °F 19.9 °F 59% 30.22 in 10.0 mi South 17.3 mph - N/A   Scattered Clouds
8:53 AM 36.0 °F 26.3 °F 21.0 °F 55% 30.21 in 10.0 mi South 16.1 mph - N/A   Mostly Cloudy
9:53 AM 39.0 °F 29.6 °F 21.0 °F 49% 30.22 in 10.0 mi SSW 18.4 mph - N/A   Mostly Cloudy
10:53 AM 42.1 °F 32.8 °F 21.0 °F 43% 30.20 in 10.0 mi SSW 21.9 mph - N/A   Mostly Cloudy
11:53 AM 42.1 °F 33.3 °F 21.9 °F 45% 30.16 in 10.0 mi SSW 19.6 mph 27.6 mph N/A   Mostly Cloudy
12:53 PM 46.4 °F 40.1 °F 23.0 °F 40% 30.10 in 10.0 mi SW 15.0 mph 29.9 mph N/A   Overcast
1:53 PM 48.0 °F - 23.0 °F 37% 30.09 in 10.0 mi SSW 17.3 mph 27.6 mph N/A   Overcast
2:53 PM 46.0 °F 38.8 °F 23.0 °F 40% 30.09 in 10.0 mi SSW 18.4 mph 24.2 mph N/A   Overcast
3:53 PM 45.0 °F 37.6 °F 25.0 °F 46% 30.08 in 10.0 mi South 17.3 mph - N/A   Mostly Cloudy
4:53 PM 42.8 °F 35.8 °F 24.8 °F 49% 30.04 in 10.0 mi South 13.8 mph - N/A   Mostly Cloudy
5:53 PM 42.1 °F 35.2 °F 24.1 °F 49% 30.06 in 10.0 mi South 12.7 mph - N/A   Mostly Cloudy
6:53 PM 39.9 °F 32.5 °F 24.1 °F 53% 30.07 in 10.0 mi South 12.7 mph - N/A   Scattered Clouds
7:53 PM 41.0 °F 32.8 °F 24.1 °F 51% 30.05 in 10.0 mi South 16.1 mph - N/A   Scattered Clouds
8:53 PM 39.9 °F 32.5 °F 25.0 °F 55% 30.05 in 10.0 mi South 12.7 mph - N/A   Scattered Clouds
9:53 PM 39.0 °F 31.4 °F 25.0 °F 57% 30.06 in 10.0 mi South 12.7 mph - N/A   Overcast
10:53 PM 37.9 °F 30.5 °F 26.1 °F 62% 30.04 in 10.0 mi South 11.5 mph - N/A   Scattered Clouds
11:53 PM 37.9 °F 29.6 °F 26.1 °F 62% 30.04 in 10.0 mi South 13.8 mph - N/A   Partly Cloudy